Schedule Details

Flight Number: ASXVIP11
Departure: Genua (LIMJ) at 20:00
Arrival: Gdansk im. Lecha Walesy (EPGD) at 22:30
Route: GEN M985 OSKOR DCT NESTI T102 IVKAL/N0443F390 T102 NINUR DCT KONIN UM726 MAH UL132 RENKI UL132 BODLA Z491 VAVUN DCT GOBRA L730 KOSEX

Weather Information
LIMJ 272250Z 04003KT 350V080 9999 FEW045 SCT070 23/18 Q1017
EPGD 272300Z 06004KT 020V110 CAVOK 16/15 Q1025

Schedule Frequency

Route Map